Weather Service Report


643 
ASUS43 KMKX 292221
RWRWI 

WISCONSIN REGIONAL WEATHER ROUNDUP
NATIONAL WEATHER SERVICE MILWAUKEE/SULLIVAN WI
500 PM CDT MON AUG 29 2016

NOTE: "FAIR" INDICATES FEW OR NO CLOUDS BELOW 12,000 FEET WITH NO
SIGNIFICANT WEATHER AND/OR OBSTRUCTIONS TO VISIBILITY.

WIZ001-002-006>008-014>016-023>028-292300-
NORTHWEST WISCONSIN
  
CITY           SKY/WX    TMP DP  RH WIND       PRES   REMARKS
SUPERIOR ARPT  SUNNY     83  69  62 SW9       30.10F HX  87           
ASHLAND        SUNNY     84  70  62 W6        30.12S HX  88           
HAYWARD        SUNNY     83  66  56 SW10G18   30.15S HX  85           
SIREN          CLOUDY    83  68  60 SW10G16   30.14S HX  87           
CUMBERLAND     PTSUNNY   79  66  65 SW8       30.17R HX  81           
RICE LAKE      PTSUNNY   80  68  68 SW3       30.18S HX  82           
CHETEK         NOT AVBL                                               
LADYSMITH      MOSUNNY   81  69  68 SW6       30.19S HX  84           
EAU CLAIRE     MOSUNNY   84  71  65 SW8G20    30.15R HX  89           
MENOMONIE      MOSUNNY   85  71  62 S6        30.15S HX  90           
NEW RICHMOND   MOSUNNY   82  69  65 SW9       30.16S HX  85           
OSCEOLA        CLOUDY    82  70  66 SW3       30.17S HX  86           
$$
 
WIZ003>005-009-010-017-018-292300-
NORTH CENTRAL WISCONSIN
  
CITY           SKY/WX    TMP DP  RH WIND       PRES   REMARKS
MANITOWISH WTR NOT AVBL                                               
ARBOR VITAE    CLOUDY    83  70  64 SW9       30.17S HX  87           
WOODRUFF       CLOUDY    83  70  64 SW9       30.17S HX  87           
RHINELANDER    PTSUNNY   79  71  76 SW9       30.20R HX  82           
EAGLE RIVER    MOSUNNY   80  66  62 S5        30.17S HX  82           
LAND O LAKES   MOSUNNY   82  65  56 SW6       30.18S HX  84           
PHILLIPS       CLOUDY    78  71  78 SW10      30.17S HX  80           
TOMAHAWK       MOSUNNY   80  69  70 SW7       30.19S HX  82           
MEDFORD        PTSUNNY   79  72  79 SW10      30.19R HX  82           
MERRILL        MOSUNNY   81  71  73 W8        30.19S HX  84           
$$
 
WIZ029-030-035-036-043>047-292300-
CENTRAL WISCONSIN
  
CITY           SKY/WX    TMP DP  RH WIND       PRES   REMARKS
WAUSAU         MOSUNNY   81  70  69 SW8       30.17S HX  84           
MOSINEE        NOT AVBL                                               
MARSHFIELD     PTSUNNY   82  70  66 S6        30.18S HX  86           
STEVENS POINT  MOSUNNY   80  68  66 SW5       30.18S HX  83           
WAUPACA        SUNNY     84  70  63 S6        30.17S HX  88           
WAUTOMA        MOSUNNY   82  72  71 S6        30.18R HX  87           
WISC RAPIDS    CLOUDY    81  71  71 SW10      30.19S HX  85           
CAMP DOUGLAS   PTSUNNY   79  72  78 S6        30.17F HX  82           
$$
 
WIZ011>013-019>022-031-037>040-048>050-292300-
NORTHEAST WISCONSIN
  
CITY           SKY/WX    TMP DP  RH WIND       PRES   REMARKS
ANTIGO         PTSUNNY   80  69  69 SW8       30.20S HX  83           
SHAWANO        MOSUNNY   85  69  58 SW3       30.16F HX  88           
OCONTO         NOT AVBL                                               
STURGEON BAY   MOSUNNY   79  68  69 S10       30.18S HX  81           
GREEN BAY      SUNNY     83  71  67 SW9       30.16S HX  87           
MANITOWOC      SUNNY     79  64  60 S13       30.17F HX  81           
APPLETON       PTSUNNY   82  66  57 S7        30.17R HX  85           
CLINTONVILLE   MOSUNNY   82  68  61 SW9       30.17R HX  85           
OSHKOSH        SUNNY     82  68  62 S12       30.16F HX  85           
$$
 
WIZ032>034-041-042-053>061-292300-
SOUTHWEST WISCONSIN
  
CITY           SKY/WX    TMP DP  RH WIND       PRES   REMARKS
LA CROSSE      CLOUDY    83  73  72 S8        30.15F HX  89           
SPARTA         CLOUDY    80  72  75 S6        30.17F HX  83           
VIROQUA        CLOUDY    77  70  80 S5        30.20S                  
BOSCOBEL       CLOUDY    82  72  71 CALM      30.17S HX  87           
PRAIRIE DU CHI CLOUDY    80  70  71 CALM      30.16S HX  83           
PLATTEVILLE    CLOUDY    78  76  92 SE3       30.19S HX  82           
$$

WIZ056-057-062-063-064-067-068-292300-
SOUTH CENTRAL WISCONSIN
  
CITY           SKY/WX    TMP DP  RH WIND       PRES   REMARKS
REEDSBURG      NOT AVBL                                               
BARABOO/DELLS  CLOUDY    79  68  69 SW6       30.19S HX  81           
LONE ROCK      MOSUNNY   81  71  71 VRB5      30.18S HX  85           
MINERAL POINT  CLOUDY    81  73  78 S3        30.20R HX  85           
MADISON        CLOUDY    81  70  69 SW3       30.18S HX  84           
MIDDLETON      CLOUDY    81  71  71 SE3       30.19S HX  85           
WATERTOWN      CLOUDY    81  71  71 CALM      30.18S HX  85           
MONROE         DRIZZLE   81  70  69 S3        30.18F HX  84           
JANESVILLE     MOSUNNY   84  72  65 SE5       30.16F HX  89           
$$
 
WIZ051-052-058>065-066-070>072-292300-
SOUTHEAST WISCONSIN
  
CITY           SKY/WX    TMP DP  RH WIND       PRES   REMARKS
MILWAUKEE      CLOUDY    80  70  71 SE6       30.19F HX  83           
WAUKESHA       PTSUNNY   79  66  65 E8        30.20F HX  81           
MILWAUKEE/TIMM SUNNY     79  57  47 E6        30.20F HX  80           
RACINE         CLOUDY    80  70  71 E5        30.20F HX  83           
BURLINGTON     PTSUNNY   81  68  65 SE7       30.19S HX  83           
KENOSHA        CLOUDY    81  70  69 SE6       30.19F HX  84           
FOND DU LAC    MOSUNNY   81  71  71 MISG      30.17F HX  85           
SHEBOYGAN      SUNNY     78  65  63 S6        30.19F HX  80           
WEST BEND      MOSUNNY   77  61  57 SE5       30.20S                  
JUNEAU         CLOUDY    80  70  70 S6        30.20S HX  83           
$$

LSZ147-162-292300-
LAKE SUPERIOR
  
STATION/POSITION TIME  TEMP    WIND        PRES    WAVE
                       AIR SEA DIR/SP/G            HT/PER
                 (UTC) (F)     (DEG/KT/KT) (MB)    (FT/S)
W MID LAKE BUOY  2150   71 69  240/  6/  6 1018.6F   1
DEVILS ISLAND    2200   73     240/ 12/ 13 1019.3S
SAXON HARBOR     2100   79      50/  4/  4 1019.6
$$
 
LMZ867-665-643>646-292300-
LAKE MICHIGAN
  
STATION/POSITION TIME  TEMP    WIND        PRES    WAVE
                       AIR SEA DIR/SP/G            HT/PER
                 (UTC) (F)     (DEG/KT/KT) (MB)    (FT/S)
CHAMBERS ISLAND  2100   79     160/  5/  9 1021.0F
S GREEN BAY BUOY 2100   76 74  190/  4/  4 1020.8
N MID LAKE BUOY  2150   72 71  220/ 12/ 14 1021.3F   1/ 3
NORTHPORT PIER   2100   75     160/  5/  9 1021.7F
SISTER BAY       2107   81     170/ 11/ 14   N/A
ALGOMA LAKESHORE 2045          220/  8/  9   N/A
KEWAUNEE LAKESHO 2100   69     180/ 11/ 14 1021.5F
SHEBOYGAN LAKESH 2200   71     180/ 16/ 16 1021.7F
PORT WASHINGTON  2100   74      CALM  /  2 1023.4
ATWATER BUOY     2200   72     240/  2/  2   N/A
MILWAUKEE LAKESH 2210   73      30/  2/  2   N/A
S MID LAKE BUOY  2150   77 80   50/  4/  6 1021.7F   1
KENOSHA   LAKESH 2200   73     360/  3/  3 1021.7F
$$

TC  - TEMPERATURE IN CELSIUS
VSB - VISIBILITY IN STATUTE MILES
WCI - WIND CHILL INDEX
HX  - HEAT INDEX

  

Return to Home page


Western Regional Climate Center, wrcc@dri.edu